Flag for Germany Weather past 2 weeks in Husum, Schleswig-Holstein, Germany

Now
36 °F

Scattered clouds.


Feels Like: 28 °F
Forecast: 38 / 42 °F
Wind: 10 mph from West

Location: Schleswig-Jagel

Current Time: Mar 3, 2015 at 12:41:29 PM

Latest Report: Mar 3, 2015 at 11:20 AM


Visibility: N/A

Pressure: 29.86 "Hg

Humidity: 93%

Dew point: 34 °F

Location of HusumLocation

Historic Weather in Husum — Graph

°F

Husum temperature yesterday

Maximum temperature yesterday: 43 °F (at 12:20 PM)
Minimum temperature yesterday: 36 °F (at 9:20 PM)
Average temperature yesterday: 39 °F

Past Weeks' High & Low Weather Summary

 TemperatureHumidityPressure
High46 °F (Mar 1, 12:20 PM)100% (Feb 17, 12:20 PM)30.63 "Hg (Feb 17, 12:20 PM)
Low27 °F (Feb 17, 7:20 AM)61% (Feb 19, 3:20 PM)29.21 "Hg (Feb 23, 8:20 AM)
Average38 °F87%29.83 "Hg
* Reported Feb 16 11:20 AM — Mar 3 11:20 AM, Husum, Weather by CustomWeather, © 2015

Note: Actual official high and low records may vary slightly from our data, if they occured in-between our weather recording intervals... More about our weather records

Advertising

Husum weather history for previous 24 hours

 ConditionsComfort  
Time TempWeatherWind HumidityBarometerVisibility
11:20 AM
Tue, Mar 3
36 °FScattered clouds.10 mph93%29.86 "HgN/A
11:02 AM36 °FScattered clouds.15 mph87%29.86 "HgN/A
10:20 AM41 °FBroken clouds.18 mph81%29.83 "Hg5 mi
10:00 AM39 °FSnow flurries. Partly sunny.20 mph87%29.83 "Hg3 mi
9:20 AM39 °FScattered clouds.20 mph81%29.83 "HgN/A
8:20 AM36 °FPassing clouds.13 mph87%29.80 "HgN/A
7:20 AM36 °FPassing clouds.12 mph87%29.80 "HgN/A
6:20 AM37 °FPassing clouds.14 mph81%29.77 "HgN/A
5:20 AM37 °FChilly.15 mph81%29.77 "HgN/A
4:20 AM36 °FChilly.12 mph93%29.74 "HgN/A
3:20 AM37 °FChilly.22 mph87%29.71 "HgN/A
2:20 AM37 °FChilly.20 mph93%29.68 "HgN/A
1:20 AM36 °FChilly.10 mph93%29.65 "HgN/A
12:20 AM37 °FChilly.14 mph87%29.62 "HgN/A
11:20 PM
Mon, Mar 2
36 °FChilly.12 mph87%29.62 "HgN/A
10:20 PM36 °FChilly.13 mph87%29.59 "HgN/A
9:20 PM36 °FChilly.9 mph87%29.59 "HgN/A
8:20 PM37 °FChilly.14 mph87%29.56 "HgN/A
7:20 PM37 °FChilly.14 mph87%29.53 "Hg6 mi
6:20 PM39 °FChilly.21 mph81%29.53 "HgN/A
5:20 PM41 °FQuite cool.25 mph76%29.50 "HgN/A
4:20 PM41 °FScattered clouds.31 mph81%29.47 "HgN/A
3:20 PM41 °FScattered showers. Broken clouds.26 mph81%29.45 "HgN/A
2:20 PM43 °FBroken clouds.30 mph76%29.42 "HgN/A
1:20 PM43 °FBroken clouds.31 mph76%29.39 "HgN/A
12:46 PM43 °FSprinkles. Partly sunny.30 mph76%29.39 "Hg3 mi
12:20 PM43 °FSprinkles. Broken clouds.28 mph81%29.36 "Hg5 mi
Weather by CustomWeather, © 2015

See weather overviewHow to use our weather pages